• In Russia
  • List of Countries
  • For 7 days
  • Water Temperature
  • Satellite Maps
  • Weather Map
  • Weather Widgets
  • user-avatar
    Login

    Hourly Weather Pabna

    Today, 24 October, Wednesday

    Time Temperature Precipitation Wind Pressure Humidity
    00:00 +25°C° 0 mm 0 mps 757 mmHg 65%
    01:00 +26°C° 0 mm 1 mps 756 mmHg 66%
    02:00 +26°C° 0 mm 1 mps 756 mmHg 66%
    03:00 +26°C° 0 mm 1 mps 756 mmHg 67%
    04:00 +26°C° 0 mm 1 mps 756 mmHg 69%
    05:00 +25°C° 0 mm 1 mps 757 mmHg 71%
    06:00 +25°C° 0 mm 1 mps 757 mmHg 72%
    07:00 +27°C° 0 mm 1 mps 757 mmHg 68%
    08:00 +28°C° 0 mm 1 mps 758 mmHg 63%
    09:00 +30°C° 0 mm 1 mps 758 mmHg 58%
    10:00 +31°C° 0 mm 1 mps 758 mmHg 52%
    11:00 +32°C° 0 mm 1 mps 758 mmHg 47%
    12:00 +34°C° 0 mm 1 mps 758 mmHg 41%
    13:00 +34°C° 0 mm 1 mps 757 mmHg 40%
    14:00 +35°C° 0 mm 2 mps 756 mmHg 39%
    15:00 +35°C° 0 mm 2 mps 755 mmHg 38%
    16:00 +32°C° 0 mm 2 mps 755 mmHg 41%
    17:00 +31°C° 0 mm 1 mps 755 mmHg 44%
    18:00 +30°C° 0 mm 1 mps 755 mmHg 47%
    19:00 +29°C° 0 mm 1 mps 756 mmHg 48%
    20:00 +28°C° 0 mm 2 mps 756 mmHg 50%
    21:00 +28°C° 0 mm 2 mps 757 mmHg 52%
    22:00 +27°C° 0 mm 2 mps 757 mmHg 53%
    23:00 +27°C° 0 mm 2 mps 757 mmHg 53%

    Tomorrow, 25 October, Thursday

    Time Temperature Precipitation Wind Pressure Humidity
    00:00 +26°C° 0 mm 2 mps 757 mmHg 54%
    01:00 +26°C° 0 mm 2 mps 757 mmHg 56%
    02:00 +25°C° 0 mm 2 mps 757 mmHg 57%
    03:00 +25°C° 0 mm 2 mps 757 mmHg 59%
    04:00 +24°C° 0 mm 2 mps 757 mmHg 60%
    05:00 +24°C° 0 mm 2 mps 758 mmHg 62%
    06:00 +24°C° 0 mm 2 mps 758 mmHg 64%
    07:00 +25°C° 0 mm 2 mps 759 mmHg 60%
    08:00 +27°C° 0 mm 2 mps 759 mmHg 56%
    09:00 +29°C° 0 mm 2 mps 760 mmHg 52%
    10:00 +30°C° 0 mm 2 mps 760 mmHg 45%
    11:00 +32°C° 0 mm 2 mps 759 mmHg 38%
    12:00 +34°C° 0 mm 2 mps 759 mmHg 31%
    13:00 +34°C° 0 mm 2 mps 758 mmHg 29%
    14:00 +34°C° 0 mm 2 mps 757 mmHg 28%
    15:00 +35°C° 0 mm 2 mps 757 mmHg 26%
    16:00 +32°C° 0 mm 2 mps 757 mmHg 30%
    17:00 +30°C° 0 mm 2 mps 757 mmHg 34%
    18:00 +28°C° 0 mm 2 mps 757 mmHg 38%
    19:00 +28°C° 0 mm 2 mps 757 mmHg 42%
    20:00 +27°C° 0 mm 2 mps 758 mmHg 45%
    21:00 +26°C° 0 mm 2 mps 758 mmHg 48%
    22:00 +26°C° 0 mm 2 mps 758 mmHg 50%
    23:00 +25°C° 0 mm 2 mps 758 mmHg 53%

    Day after tomorrow, 26 October, Friday

    Time Temperature Precipitation Wind Pressure Humidity
    00:00 +25°C° 0 mm 2 mps 758 mmHg 55%
    01:00 +24°C° 0 mm 2 mps 758 mmHg 56%
    02:00 +24°C° 0 mm 2 mps 758 mmHg 56%
    03:00 +24°C° 0 mm 2 mps 758 mmHg 57%
    04:00 +23°C° 0 mm 2 mps 758 mmHg 58%
    05:00 +23°C° 0 mm 2 mps 759 mmHg 59%
    06:00 +23°C° 0 mm 2 mps 759 mmHg 60%
    07:00 +24°C° 0 mm 2 mps 760 mmHg 57%
    08:00 +26°C° 0 mm 2 mps 760 mmHg 53%
    09:00 +28°C° 0 mm 2 mps 761 mmHg 49%
    10:00 +29°C° 0 mm 2 mps 761 mmHg 45%
    11:00 +31°C° 0 mm 2 mps 760 mmHg 41%
    12:00 +32°C° 0 mm 2 mps 760 mmHg 36%
    13:00 +32°C° 0 mm 2 mps 759 mmHg 35%
    14:00 +32°C° 0 mm 2 mps 758 mmHg 34%
    15:00 +33°C° 0 mm 3 mps 757 mmHg 33%
    16:00 +31°C° 0 mm 2 mps 757 mmHg 38%
    17:00 +29°C° 0 mm 2 mps 757 mmHg 42%
    18:00 +28°C° 0 mm 2 mps 757 mmHg 47%
    19:00 +27°C° 0 mm 2 mps 758 mmHg 50%
    20:00 +27°C° 0 mm 2 mps 758 mmHg 54%
    21:00 +26°C° 0 mm 3 mps 759 mmHg 57%
    22:00 +26°C° 0 mm 2 mps 759 mmHg 60%
    23:00 +25°C° 0 mm 2 mps 759 mmHg 63%

    27 October, Saturday

    Time Temperature Precipitation Wind Pressure Humidity
    00:00 +25°C° 0 mm 2 mps 759 mmHg 65%
    01:00 +24°C° 0 mm 2 mps 758 mmHg 67%
    02:00 +24°C° 0 mm 2 mps 758 mmHg 69%
    03:00 +24°C° 0 mm 2 mps 758 mmHg 71%
    04:00 +23°C° 0 mm 2 mps 758 mmHg 73%
    05:00 +23°C° 0 mm 2 mps 758 mmHg 75%
    06:00 +23°C° 0 mm 2 mps 759 mmHg 77%
    07:00 +24°C° 0 mm 2 mps 759 mmHg 72%
    08:00 +26°C° 0 mm 2 mps 760 mmHg 66%
    09:00 +28°C° 0 mm 2 mps 761 mmHg 61%
    10:00 +29°C° 0 mm 1 mps 760 mmHg 54%
    11:00 +30°C° 0 mm 1 mps 759 mmHg 47%
    12:00 +32°C° 0 mm 1 mps 759 mmHg 40%
    13:00 +30°C° 0 mm 0 mps 758 mmHg 38%
    14:00 +30°C° 0 mm 0 mps 757 mmHg 36%
    15:00 +31°C° 0 mm 0 mps 756 mmHg 33%
    16:00 +31°C° 0 mm 1 mps 756 mmHg 37%
    17:00 +30°C° 0 mm 1 mps 757 mmHg 40%
    18:00 +29°C° 0 mm 1 mps 757 mmHg 43%
    19:00 +28°C° 0 mm 1 mps 757 mmHg 46%
    20:00 +27°C° 0 mm 2 mps 758 mmHg 48%
    21:00 +27°C° 0 mm 2 mps 758 mmHg 50%
    22:00 +26°C° 0 mm 2 mps 758 mmHg 53%
    23:00 +26°C° 0 mm 2 mps 758 mmHg 56%

    28 October, Sunday

    Time Temperature Precipitation Wind Pressure Humidity
    00:00 +25°C° 0 mm 2 mps 758 mmHg 59%
    01:00 +25°C° 0 mm 2 mps 758 mmHg 62%
    02:00 +25°C° 0 mm 2 mps 757 mmHg 65%
    03:00 +24°C° 0 mm 2 mps 757 mmHg 68%
    04:00 +24°C° 0 mm 2 mps 757 mmHg 70%
    05:00 +24°C° 0 mm 2 mps 758 mmHg 72%
    06:00 +23°C° 0 mm 2 mps 758 mmHg 74%
    07:00 +25°C° 0 mm 2 mps 759 mmHg 68%
    08:00 +27°C° 0 mm 2 mps 759 mmHg 63%
    09:00 +29°C° 0 mm 2 mps 760 mmHg 57%
    10:00 +30°C° 0 mm 2 mps 759 mmHg 52%
    11:00 +31°C° 0 mm 2 mps 759 mmHg 47%
    12:00 +34°C° 0 mm 2 mps 758 mmHg 41%
    13:00 +33°C° 0 mm 1 mps 757 mmHg 40%
    14:00 +33°C° 0 mm 1 mps 756 mmHg 38%
    15:00 +34°C° 0 mm 1 mps 756 mmHg 36%
    16:00 +32°C° 0 mm 1 mps 756 mmHg 40%
    17:00 +31°C° 0 mm 1 mps 756 mmHg 43%
    18:00 +30°C° 0 mm 1 mps 756 mmHg 47%
    19:00 +29°C° 0 mm 2 mps 757 mmHg 50%
    20:00 +28°C° 0 mm 2 mps 757 mmHg 53%
    21:00 +28°C° 0 mm 2 mps 758 mmHg 55%
    22:00 +27°C° 0 mm 2 mps 758 mmHg 57%
    23:00 +27°C° 0 mm 2 mps 758 mmHg 58%

    29 October, Monday

    Time Temperature Precipitation Wind Pressure Humidity
    00:00 +26°C° 0 mm 2 mps 758 mmHg 59%
    01:00 +26°C° 0 mm 2 mps 757 mmHg 61%
    02:00 +26°C° 0 mm 2 mps 757 mmHg 63%
    03:00 +25°C° 0 mm 2 mps 757 mmHg 65%
    04:00 +25°C° 0 mm 2 mps 757 mmHg 65%
    05:00 +25°C° 0 mm 2 mps 757 mmHg 66%
    06:00 +25°C° 0 mm 2 mps 758 mmHg 66%
    07:00 +26°C° 0 mm 2 mps 758 mmHg 61%
    08:00 +27°C° 0 mm 3 mps 759 mmHg 56%
    09:00 +28°C° 0 mm 3 mps 759 mmHg 51%
    10:00 +29°C° 0 mm 3 mps 759 mmHg 49%
    11:00 +30°C° 0 mm 3 mps 758 mmHg 46%
    12:00 +31°C° 0 mm 3 mps 758 mmHg 43%
    13:00 +31°C° 0 mm 3 mps 757 mmHg 44%
    14:00 +31°C° 0 mm 3 mps 757 mmHg 44%
    15:00 +33°C° 0 mm 3 mps 756 mmHg 44%
    16:00 +30°C° 0 mm 3 mps 756 mmHg 48%
    17:00 +29°C° 0 mm 3 mps 756 mmHg 53%
    18:00 +27°C° 0 mm 2 mps 757 mmHg 58%
    19:00 +27°C° 0 mm 2 mps 757 mmHg 59%
    20:00 +26°C° 0 mm 2 mps 758 mmHg 60%
    21:00 +25°C° 0 mm 1 mps 758 mmHg 62%
    22:00 +25°C° 0 mm 1 mps 758 mmHg 63%
    23:00 +25°C° 0 mm 1 mps 758 mmHg 63%

    30 October, Tuesday

    Time Temperature Precipitation Wind Pressure Humidity
    00:00 +25°C° 0 mm 1 mps 758 mmHg 64%
    01:00 +24°C° 0 mm 1 mps 758 mmHg 65%
    02:00 +24°C° 0 mm 1 mps 757 mmHg 66%
    03:00 +24°C° 0 mm 1 mps 757 mmHg 67%
    04:00 +24°C° 0 mm 1 mps 757 mmHg 68%
    05:00 +23°C° 0 mm 1 mps 758 mmHg 70%
    06:00 +23°C° 0 mm 1 mps 758 mmHg 71%
    07:00 +25°C° 0 mm 1 mps 758 mmHg 66%
    08:00 +27°C° 0 mm 1 mps 759 mmHg 61%
    09:00 +29°C° 0 mm 2 mps 759 mmHg 56%
    10:00 +30°C° 0 mm 2 mps 759 mmHg 53%
    11:00 +31°C° 0 mm 2 mps 758 mmHg 49%
    12:00 +33°C° 0 mm 3 mps 758 mmHg 46%
    13:00 +32°C° 0 mm 2 mps 757 mmHg 44%
    14:00 +34°C° 0 mm 2 mps 756 mmHg 43%
    15:00 +34°C° 0 mm 2 mps 756 mmHg 41%
    16:00 +32°C° 0 mm 2 mps 756 mmHg 44%
    17:00 +31°C° 0 mm 2 mps 756 mmHg 47%
    18:00 +30°C° 0 mm 2 mps 756 mmHg 51%
    19:00 +29°C° 0 mm 2 mps 757 mmHg 54%
    20:00 +28°C° 0 mm 2 mps 757 mmHg 57%
    21:00 +27°C° 0 mm 2 mps 758 mmHg 60%
    22:00 +27°C° 0 mm 2 mps 757 mmHg 62%
    23:00 +26°C° 0 mm 2 mps 757 mmHg 65%
    Show more